When you browse on this site, cookies collect data to enhance your experience and personalize the content and advertising you see.
Visit our Privacy Policy to learn more. By continuing to use the site, you agree to this use of cookies and data.
  • en Suisse
  • Liste des pays
  • À 7 jours
  • Température de l'eau
  • Carte météo
  • Widgets météo
  • user-avatar
    Se connecter

    Météo par heure à Bar

    Ce jour, 12 Novembre, Mardi

    Heure Température Précipitation Vent Pression Humidité
    00:00 +1°C° 0 mm 2 m/s 610 mmHg 65%
    01:00 +1°C° 0 mm 2 m/s 610 mmHg 63%
    02:00 +1°C° 0.1 mm 2 m/s 610 mmHg 64%
    03:00 +2°C° 0.1 mm 2 m/s 609 mmHg 64%
    04:00 +2°C° 0.1 mm 2 m/s 609 mmHg 65%
    05:00 +2°C° 0.2 mm 2 m/s 609 mmHg 70%
    06:00 +3°C° 0.2 mm 2 m/s 608 mmHg 75%
    07:00 +2°C° 0 mm 3 m/s 608 mmHg 84%
    08:00 +3°C° 0.1 mm 3 m/s 608 mmHg 83%
    09:00 +3°C° 0.1 mm 3 m/s 608 mmHg 83%
    10:00 +4°C° 0.1 mm 3 m/s 608 mmHg 82%
    11:00 +5°C° 0 mm 3 m/s 608 mmHg 81%
    12:00 +7°C° 0 mm 3 m/s 608 mmHg 79%
    13:00 +7°C° 0 mm 3 m/s 609 mmHg 73%
    14:00 +5°C° 2.5 mm 3 m/s 608 mmHg 81%
    15:00 +4°C° 2.5 mm 3 m/s 608 mmHg 89%
    16:00 +4°C° 2.5 mm 3 m/s 607 mmHg 97%
    17:00 +3°C° 4.1 mm 3 m/s 607 mmHg 97%
    18:00 +3°C° 4.1 mm 3 m/s 607 mmHg 98%
    19:00 +3°C° 4.1 mm 3 m/s 607 mmHg 98%
    20:00 +4°C° 3.7 mm 2 m/s 607 mmHg 98%
    21:00 +4°C° 3.7 mm 2 m/s 607 mmHg 97%
    22:00 +5°C° 3.7 mm 1 m/s 606 mmHg 96%
    23:00 +3°C° 3.1 mm 2 m/s 606 mmHg 95%

    Demain, 13 Novembre, Mercredi

    Heure Température Précipitation Vent Pression Humidité
    00:00 +3°C° 3.1 mm 2 m/s 606 mmHg 95%
    01:00 +2°C° 3.1 mm 2 m/s 605 mmHg 94%
    02:00 +2°C° 0.9 mm 2 m/s 605 mmHg 93%
    03:00 +2°C° 0.9 mm 2 m/s 605 mmHg 92%
    04:00 +2°C° 0.9 mm 2 m/s 604 mmHg 91%
    05:00 +2°C° 0 mm 2 m/s 604 mmHg 90%
    06:00 +2°C° 0 mm 2 m/s 604 mmHg 88%
    07:00 +1°C° 0 mm 3 m/s 603 mmHg 87%
    08:00 +1°C° 0.4 mm 3 m/s 604 mmHg 87%
    09:00 +2°C° 0.4 mm 3 m/s 604 mmHg 88%
    10:00 +1°C° 0.4 mm 4 m/s 604 mmHg 89%
    11:00 +1°C° 2.3 mm 4 m/s 605 mmHg 90%
    12:00 +3°C° 2.3 mm 4 m/s 605 mmHg 91%
    13:00 +3°C° 2.3 mm 4 m/s 605 mmHg 92%
    14:00 +3°C° 4.8 mm 4 m/s 605 mmHg 94%
    15:00 +2°C° 4.8 mm 3 m/s 605 mmHg 95%
    16:00 +2°C° 4.8 mm 3 m/s 605 mmHg 97%
    17:00 +2°C° 4.1 mm 3 m/s 606 mmHg 97%
    18:00 +3°C° 4.1 mm 3 m/s 607 mmHg 97%
    19:00 +3°C° 4.1 mm 3 m/s 607 mmHg 97%
    20:00 +3°C° 0.7 mm 3 m/s 607 mmHg 97%
    21:00 +2°C° 0.7 mm 3 m/s 608 mmHg 96%
    22:00 +3°C° 0.7 mm 2 m/s 608 mmHg 96%
    23:00 +3°C° 0.5 mm 2 m/s 608 mmHg 96%

    Après-demain, 14 Novembre, Jeudi

    Heure Température Précipitation Vent Pression Humidité
    00:00 +3°C° 0.5 mm 2 m/s 608 mmHg 96%
    01:00 +3°C° 0.5 mm 2 m/s 608 mmHg 97%
    02:00 +4°C° 0.5 mm 1 m/s 608 mmHg 96%
    03:00 +4°C° 0.5 mm 1 m/s 608 mmHg 96%
    04:00 +3°C° 0.5 mm 1 m/s 608 mmHg 96%
    05:00 +3°C° 0.1 mm 1 m/s 608 mmHg 94%
    06:00 +3°C° 0.1 mm 1 m/s 608 mmHg 93%
    07:00 +3°C° 0.1 mm 1 m/s 609 mmHg 92%
    08:00 +4°C° 0 mm 1 m/s 609 mmHg 88%
    09:00 +5°C° 0 mm 1 m/s 609 mmHg 85%
    10:00 +6°C° 0 mm 1 m/s 610 mmHg 82%
    11:00 +6°C° 0.2 mm 1 m/s 610 mmHg 82%
    12:00 +6°C° 0.2 mm 1 m/s 610 mmHg 82%
    13:00 +6°C° 0.2 mm 1 m/s 610 mmHg 82%
    14:00 +6°C° 0.2 mm 1 m/s 609 mmHg 86%
    15:00 +5°C° 0.2 mm 1 m/s 609 mmHg 89%
    16:00 +4°C° 0.2 mm 1 m/s 609 mmHg 92%
    17:00 +4°C° 0 mm 1 m/s 609 mmHg 92%
    18:00 +3°C° 0 mm 1 m/s 609 mmHg 92%
    19:00 +2°C° 0 mm 1 m/s 609 mmHg 91%
    20:00 +2°C° 0 mm 1 m/s 610 mmHg 91%
    21:00 +2°C° 0 mm 1 m/s 610 mmHg 90%
    22:00 +2°C° 0 mm 1 m/s 610 mmHg 90%
    23:00 +1°C° 0 mm 1 m/s 610 mmHg 89%

    15 Novembre, Vendredi

    Heure Température Précipitation Vent Pression Humidité
    00:00 +1°C° 0 mm 1 m/s 610 mmHg 87%
    01:00 +1°C° 0 mm 1 m/s 610 mmHg 86%
    02:00 +1°C° 0 mm 1 m/s 610 mmHg 84%
    03:00 +1°C° 0 mm 1 m/s 610 mmHg 83%
    04:00 +1°C° 0 mm 1 m/s 610 mmHg 81%
    05:00 +1°C° 0 mm 1 m/s 610 mmHg 80%
    06:00 +1°C° 0 mm 1 m/s 610 mmHg 78%
    07:00 +1°C° 0 mm 1 m/s 610 mmHg 77%
    08:00 +3°C° 0 mm 1 m/s 611 mmHg 78%
    09:00 +5°C° 0 mm 1 m/s 612 mmHg 75%
    10:00 +7°C° 0 mm 1 m/s 613 mmHg 72%
    11:00 +6°C° 0 mm 2 m/s 613 mmHg 72%
    12:00 +7°C° 0 mm 2 m/s 613 mmHg 72%
    13:00 +7°C° 0 mm 2 m/s 613 mmHg 72%
    14:00 +6°C° 0 mm 2 m/s 613 mmHg 77%
    15:00 +5°C° 0 mm 2 m/s 612 mmHg 82%
    16:00 +5°C° 0 mm 1 m/s 612 mmHg 87%
    17:00 +3°C° 0 mm 2 m/s 612 mmHg 88%
    18:00 +3°C° 0 mm 2 m/s 612 mmHg 88%
    19:00 +2°C° 0 mm 2 m/s 612 mmHg 89%
    20:00 +2°C° 0 mm 2 m/s 613 mmHg 90%
    21:00 +2°C° 0 mm 2 m/s 613 mmHg 91%
    22:00 +3°C° 0 mm 2 m/s 613 mmHg 92%
    23:00 +3°C° 0.1 mm 2 m/s 613 mmHg 94%

    16 Novembre, Samedi

    Heure Température Précipitation Vent Pression Humidité
    00:00 +3°C° 0.1 mm 2 m/s 614 mmHg 95%
    01:00 +3°C° 0.1 mm 2 m/s 614 mmHg 96%
    02:00 +3°C° 0 mm 1 m/s 614 mmHg 94%
    03:00 +3°C° 0 mm 1 m/s 613 mmHg 93%
    04:00 +3°C° 0 mm 1 m/s 613 mmHg 92%
    05:00 +3°C° 0 mm 1 m/s 614 mmHg 89%
    06:00 +3°C° 0 mm 1 m/s 614 mmHg 86%
    07:00 +3°C° 0 mm 1 m/s 614 mmHg 83%
    08:00 +5°C° 0 mm 1 m/s 614 mmHg 81%
    09:00 +6°C° 0 mm 1 m/s 615 mmHg 80%
    10:00 +7°C° 0 mm 1 m/s 615 mmHg 78%
    11:00 +8°C° 0 mm 1 m/s 615 mmHg 76%
    12:00 +8°C° 0 mm 1 m/s 615 mmHg 74%
    13:00 +9°C° 0 mm 1 m/s 615 mmHg 72%
    14:00 +8°C° 0 mm 1 m/s 614 mmHg 77%
    15:00 +5°C° 0 mm 0 m/s 613 mmHg 83%
    16:00 +4°C° 0 mm 0 m/s 613 mmHg 88%
    17:00 +4°C° 0 mm 0 m/s 613 mmHg 87%
    18:00 +3°C° 0 mm 0 m/s 612 mmHg 87%
    19:00 +4°C° 0 mm 1 m/s 612 mmHg 87%
    20:00 +3°C° 0 mm 1 m/s 612 mmHg 85%
    21:00 +3°C° 0 mm 1 m/s 612 mmHg 83%
    22:00 +3°C° 0 mm 1 m/s 612 mmHg 82%
    23:00 +2°C° 0 mm 1 m/s 611 mmHg 80%

    17 Novembre, Dimanche

    Heure Température Précipitation Vent Pression Humidité
    00:00 +2°C° 0 mm 1 m/s 611 mmHg 78%
    01:00 +2°C° 0 mm 1 m/s 611 mmHg 76%
    02:00 +2°C° 0 mm 1 m/s 610 mmHg 75%
    03:00 +2°C° 0 mm 1 m/s 610 mmHg 73%
    04:00 +1°C° 0 mm 1 m/s 610 mmHg 72%
    05:00 +1°C° 0 mm 1 m/s 610 mmHg 72%
    06:00 +1°C° 0 mm 1 m/s 610 mmHg 72%
    07:00 -1°C° 0 mm 2 m/s 610 mmHg 71%
    08:00 +3°C° 0 mm 1 m/s 610 mmHg 67%
    09:00 +5°C° 0 mm 1 m/s 611 mmHg 63%
    10:00 +7°C° 0 mm 1 m/s 612 mmHg 58%
    11:00 +8°C° 0 mm 1 m/s 612 mmHg 58%
    12:00 +8°C° 0 mm 1 m/s 612 mmHg 58%
    13:00 +8°C° 0 mm 1 m/s 612 mmHg 58%
    14:00 +7°C° 0 mm 1 m/s 611 mmHg 64%
    15:00 +6°C° 0 mm 1 m/s 610 mmHg 70%
    16:00 +5°C° 0 mm 1 m/s 610 mmHg 76%
    17:00 +4°C° 0 mm 1 m/s 610 mmHg 74%
    18:00 +4°C° 0 mm 1 m/s 610 mmHg 71%
    19:00 +2°C° 0 mm 2 m/s 609 mmHg 68%
    20:00 +3°C° 0.1 mm 1 m/s 610 mmHg 69%
    21:00 +3°C° 0.1 mm 1 m/s 610 mmHg 70%
    22:00 +3°C° 0.1 mm 1 m/s 611 mmHg 71%
    23:00 +3°C° 1.9 mm 1 m/s 611 mmHg 79%
    Voir plus